Location: Ash Shall?l al Awwal
(24.0167°N, 32.8667°E)
Time: 05:25:13
(UTC+00:00)

Cosmos 1486 Rocket - Pass Details

Date: 02 March 2021
Orbit: 758 x 784 km, 74.1° (Epoch: 12 April)

Event Time Altitude Azimuth Distance (km) Brightness Sun altitude
Rises 16:54:09 0° 352° (N) 3,251 7.3 -15.0°
Reaches altitude 10° 16:56:35 10° 357° (N) 2,325 6.5 -15.6°
Maximum altitude 17:01:45 53° 74° (ENE) 949 4.1 -16.8°
Drops below altitude 10° 17:06:55 10° 151° (SSE) 2,329 6.2 -17.9°
Enters shadow 17:08:10 - 154° (SSE) 2,807 6.7 -18.2°
